Regional Weather Roundup
Issued by NWS

Home | Current Version | Previous Version | Graphics & Text | Print | Product List | Glossary On
Versions: 1 2 3 4 5 6 7 8 9 10 11 12 13 14 15 16 17 18 19 20 21 22 23 24 25 26 27 28 29 30 31 32 33 34 35 36 37 38 39 40 41 42 43 44 45 46 47 48 49 50
000
ASUS43 KLMK 262202
RWRKY
KENTUCKY REGIONAL WEATHER ROUNDUP
NATIONAL WEATHER SERVICE LOUISVILLE KY
600 PM EDT FRI MAY 26 2017

NOTE "FAIR" INDICATES FEW OR NO CLOUDS BELOW 12,000 FEET
WITH NO SIGNIFICANT WEATHER AND/OR OBSTRUCTIONS TO VISIBILITY.

KYZ001>023-026-027-061>063-070>075-262300-
WESTERN AND SOUTH CENTRAL KENTUCKY

CITY           SKY/WX    TMP DP  RH WIND       PRES   REMARKS
PADUCAH        CLOUDY    80  62  54 SW20G28   29.80R
HENDERSON      MOSUNNY   83  60  45 S10       29.79F
OWENSBORO      MOSUNNY   84  60  44 SW17G24   29.80F
HOPKINSVILLE   PTSUNNY   83  59  44 SW16G22   29.83R
BOWLING GREEN  SUNNY     85  60  42 S15       29.85R
GLASGOW        NOT AVBL
$$

KYZ024-025-028>034-038-045-046-053-262300-
NORTH CENTRAL KENTUCKY

CITY           SKY/WX    TMP DP  RH WIND       PRES   REMARKS
LOUISVILLE/SDF MOSUNNY   81  64  56 S15       29.83F
LOUISVILLE/LOU MOSUNNY   81  65  58 S12       29.84F
FORT KNOX      SUNNY     81  62  53 S9G17     29.83S
$$

KYZ035>037-039>044-047>052-055>060-089>105-262300-
NORTHEAST KENTUCKY

CITY           SKY/WX    TMP DP  RH WIND       PRES   REMARKS
LEXINGTON      MOSUNNY   78  61  55 S7        29.90F
COVINGTON      MOSUNNY   77  60  55 S10       29.87S
FRANKFORT      MOSUNNY   80  61  52 S12       29.86F
$$

KYZ054-064>069-076>088-106>120-262300-
SOUTHEAST KENTUCKY

CITY           SKY/WX    TMP DP  RH WIND       PRES   REMARKS
JACKSON        SUNNY     76  58  53 CALM      29.94S
LONDON         MOSUNNY   78  58  49 SW10      29.94R
SOMERSET       PTSUNNY   77  59  53 SW3       29.93S
MIDDLESBORO    SUNNY     78  58  50 S5        29.96R
MONTICELLO     PTCLDY    80  64  58 S9G21     29.92F
$$




USA.gov is the U.S. government's official web portal to all federal, state and local government web resources and services.